This demonstration page uses our WeatherBlox Daily Observations layout. Learn more.

Left ArrowRight Arrow

Hourly Observations for August 21, 2018

Temp ( °F °C ) Dew Point ( °F °C ) Humidity (%) Winds ( mph kmh ) Pressure ( in mb ) Visibility ( mi km ) Precip ( " mm )
12:59 am 00:59 Mostly Cloudy 77 25 73 22.8 88 88 ESE 3 6 30.05 1018 10 16 0.00 0.00
1:59 am 01:59 Mostly Cloudy 77 25 73 22.8 88 88 E 7 11 30.04 1017 10 16 0.00 0.00
2:59 am 02:59 Mostly Cloudy 77 25 73 22.8 88 88 ESE 6 9 30.03 1017 10 16 0.00 0.00
3:59 am 03:59 Mostly Cloudy 77 25 74 23.3 90 90 SE 6 9 30.02 1017 10 16 0.00 0.00
4:59 am 04:59 Mostly Cloudy 77 25 74 23.3 90 90 SE 6 9 30.01 1016 10 16 0.00 0.00
5:59 am 05:59 Mostly Cloudy 77 25 75 23.9 94 94 Calm 30.01 1016 9 14 0.00 0.00
6:59 am 06:59 Mostly Cloudy 76 24.4 74 23.3 94 94 Calm 30.03 1017 7 11 0.00 0.00
7:59 am 07:59 Mostly Cloudy 78 25.6 75 23.9 90 90 Calm 30.03 1017 8 13 0.00 0.00
8:19 am 08:19 Mostly Cloudy 79 26.1 75 23.9 88 88 S 6 9 30.03 1017 8 13 0.00 0.00
8:59 am 08:59 Mostly Cloudy 81 27.2 75 23.9 82 82 VRB 3 6 30.03 1017 9 14 0.00 0.00
9:59 am 09:59 Mostly Cloudy 81 27.2 74 23.3 79 79 S 5 7 30.02 1017 10 16 0.00 0.00
10:59 am 10:59 Mostly Cloudy 83 28.3 73 22.8 72 72 WSW 8 13 30.02 1017 10 16 0.00 0.00
11:59 am 11:59 Mostly Cloudy 85 29.4 74 23.3 70 70 SSW 8 13 30.00 1016 10 16 0.00 0.00
12:59 pm 12:59 Mostly Cloudy 85 29.4 74 23.3 70 70 SSW 8 13 29.98 1015 10 16 0.00 0.00
1:52 pm 13:52 Mostly Cloudy with Light Rain 83 28.3 74 23.3 74 74 WSW 8 13 29.97 1015 2 3 0.05 1.27
1:59 pm 13:59 Mostly Cloudy with Light Rain 84 28.9 76 24.4 77 77 VRB 3 6 29.95 1014 6 10 0.05 1.27
2:59 pm 14:59 Mostly Cloudy 89 31.7 75 23.9 63 63 S 6 9 29.93 1014 7 11 0.00 0.03
3:57 pm 15:57 Mostly Cloudy with Thunderstorms 81 27 73 23 79 79 S 12 19 29.91 1013 10 16 0.04 1.02
3:59 pm 15:59 Mostly Cloudy with Thunderstorms 81 27.2 74 23.3 79 79 S 9 15 29.91 1013 10 16 0.04 1.02
4:59 pm 16:59 Mostly Cloudy with Thunderstorms 80 26.7 74 23.3 82 82 SSE 8 13 29.91 1013 10 16 0.00 0.03
5:28 pm 17:28 Cloudy with Thunderstorms 78 25.6 72 22.2 82 82 SSW 12 19 29.94 1014 2 2 0.08 2.03
5:30 pm 17:30 Cloudy with Thunderstorms 78 25.6 73 22.8 85 85 SSW 13 20 29.94 1014 1 1 0.14 3.56
5:38 pm 17:38 Cloudy with Thunderstorms 76 24.4 73 22.8 91 91 S 3 6 29.91 1013 3 4 0.21 5.33
5:59 pm 17:59 Mostly Cloudy with Thunderstorms 77 25 74 23.3 90 90 SSW 6 9 29.92 1013 3 4 0.21 5.33
6:07 pm 18:07 Mostly Cloudy with Thunderstorms 77 25 74 23.3 90 90 S 5 7 29.91 1013 9 14 0.00 0.03
6:53 pm 18:53 Cloudy with Thunderstorms 79 26 75 24 89 89 SW 18 30 29.94 1014 0 0 0.15 3.81
6:59 pm 18:59 Cloudy with Thunderstorms 76 24.4 74 23.3 94 94 SSW 9 15 29.94 1014 0 0 0.24 6.10
7:04 pm 19:04 Cloudy with Thunderstorms 77 25 74 23.3 90 90 S 7 11 29.94 1014 0 0 0.05 1.27
7:10 pm 19:10 Mostly Cloudy with Thunderstorms 77 25 75 23.9 94 94 SSE 7 11 29.91 1013 3 4 0.06 1.52
7:41 pm 19:41 Mostly Cloudy with Thunderstorms 77 25 75 23.9 94 94 SSE 5 7 29.91 1013 7 11 0.06 1.52
7:59 pm 19:59 Mostly Cloudy 77 25 75 23.9 94 94 SSE 7 11 29.92 1013 8 13 0.06 1.52
8:59 pm 20:59 Mostly Cloudy 78 25.6 75 23.9 90 90 S 5 7 29.92 1013 8 13 0.00 0.00
9:59 pm 21:59 Mostly Cloudy 78 25.6 76 24.4 93 93 SSW 8 13 29.93 1014 8 13 0.00 0.00
10:59 pm 22:59 Mostly Cloudy 79 26.1 75 23.9 88 88 SSW 12 19 29.92 1013 10 16 0.00 0.00
11:59 pm 23:59 Mostly Cloudy 78 25.6 74 23.3 87 87 SSW 9 15 29.91 1013 10 16 0.00 0.00

Powered by AerisWeather